DELTA 1 DEB, 1312

Orbit data source: Space-Track

DELTA 1 DEB, 1312 is space debris in SSO originally from a launch on Fri, 22 Jan 1965 UTC launched from the Air Force Eastern Test Range (AFETR). Debris objects in space refer to the collection of defunct objects orbiting the Earth. Examples of debris include non-operational satellites, rocket bodies, and fragments generated from explosions, collisions, or faulty payload assembly.

Loading next visibility...
Identifier
1312, 1965-004C
Orbit
SSO
Country
Flag of USUS
Related business
Manufacturer
Unknown
Mission
Spacecraft
Bus & Motor
Unknown
Mass
~1 kg wet, ~1 kg dry
Launch date (UTC)
1965-01-22 (61 years ago)
Launch vehicle
Unknown
Launch site
Air Force Eastern Test Range (AFETR)
Object type
Payload
Rocket body
Debris
Shape & HBR
Unknown
Radar Cross Section
Small (<0.1 m²)

Expand to show TLE details & history
Last TLE update: 2 weeks ago

TLE from 2 weeks ago
0 DELTA 1 DEB
1 01312U 65004C   25299.78667295  .00000273  00000-0  29974-3 0  9995
2 01312  96.3584  42.6670 1115222 275.9746  71.5571 12.28174795697939
Epoch: 2025-10-26T18:52Z
TLE epoch observation values (Epoch: 2025-10-26T18:52:48.542Z)
Latitude
-0.0001°
Longitude
84.06689°
Altitude
1,372.88 km
Speed
7.257 km/s
True Right ascension
02h 50m 40s
True Declination
0° 00' 00"
Sunlit
Object was in full shadow at epoch
Visualization orbit readout
Latitude
Unknown
Longitude
Unknown
Altitude
Unknown
Speed
Unknown
Apparent Right ascension
Unknown
Apparent Declination
Unknown
Sunlit
N/A
Visualization observer readout
Local Sidereal Time
21:00:48
Azimuth
Unknown
Elevation
Unknown
Doppler factor
Unknown
Orbital elements
Apogee altitude
2,439.071 km
Perigee altitude
669.76 km
Semi-major axis
7,932.552 km
Eccentricity
0.11152
Inclination
96.3584°
RAAN
42.667°
Arg. of periapsis
275.9746°
True anomaly
84.13612°
Mean anomaly
71.5571°
Eccentric anomaly
77.80261°
Mean motion
3.07202 °/min
Orbital period
117.19 mins
BSTAR
0.00029974
Loading maneuver chart data...
Computing Atmospheric mass density...
Loading historical data...
Loading historical data...
Loading historical data...
Loading historical data...
Loading historical data...
Loading historical data...
Loading historical data...
Other satellites on launch #4 in the year 1965 (1965-01-22 UTC)

Documentation

Showing up to 5 results
|